Location: Warszawa
(52.2500°N, 21.0000°E)
Time: 10:11:09
(UTC+01:00)

Transit 2A - Visible Passes

Search period start: 28 January 2023 00:00
Search period end: 07 February 2023 00:00
Orbit: 594 x 962 km, 66.7° (Epoch: 27 January)

Date Brightness Start Highest point End Pass type
(mag) Time Alt. Az. Time Alt. Az. Time Alt. Az.
28 Jan 7.0 17:28:01 10° SSE 17:31:57 25° ESE 17:34:43 17° ENE visible
28 Jan 6.2 19:09:44 10° SW 19:14:38 67° NW 19:15:14 61° N visible
28 Jan 8.7 20:54:38 10° WNW 20:55:44 15° WNW 20:55:44 15° WNW visible
29 Jan 7.4 16:54:27 10° SSE 16:57:44 18° ESE 17:01:15 10° ENE visible
29 Jan 5.9 18:35:11 10° SW 18:40:05 87° NW 18:42:19 36° NE visible
29 Jan 7.9 20:19:37 10° W 20:22:49 25° NW 20:22:49 25° NW visible
30 Jan 5.9 18:00:45 10° SSW 18:05:36 70° SE 18:09:19 20° NE visible
30 Jan 7.4 19:44:40 10° W 19:49:17 33° NNW 19:49:49 32° NNW visible
31 Jan 6.2 17:26:28 10° SSW 17:31:10 51° ESE 17:36:13 11° NE visible
31 Jan 7.1 19:09:47 10° WSW 19:14:34 40° NW 19:16:42 28° N visible
31 Jan 8.6 20:55:19 10° WNW 20:57:12 17° NW 20:57:12 17° NW visible
01 Feb 6.6 16:52:21 10° S 16:56:49 37° ESE 17:01:45 10° NE visible
01 Feb 6.7 18:35:00 10° WSW 18:39:53 50° NW 18:43:32 20° NNE visible
01 Feb 8.1 20:20:16 10° WNW 20:24:01 22° NNW 20:24:01 22° NNW visible
02 Feb 6.3 18:00:17 10° SW 18:05:15 65° NW 18:10:17 13° NE visible
02 Feb 7.9 19:45:13 10° WNW 19:49:32 24° NNW 19:50:45 23° N visible
02 Feb 9.0 21:30:42 10° NW 21:31:14 12° NW 21:31:14 12° NW visible
03 Feb 6.1 17:25:42 10° SW 17:30:41 85° NW 17:36:17 10° NE visible
03 Feb 7.7 19:10:12 10° W 19:14:42 28° NNW 19:17:27 19° NNE visible
03 Feb 8.6 20:55:50 10° NW 20:57:56 17° NNW 20:57:56 17° NNW visible
04 Feb 7.5 18:35:14 10° W 18:39:54 33° NNW 18:44:06 14° NNE visible
04 Feb 8.2 20:20:53 10° NW 20:24:34 19° N 20:24:34 19° N visible
05 Feb 7.2 18:00:20 10° WSW 18:05:09 40° NW 18:10:30 10° NNE visible
05 Feb 8.1 19:45:53 10° WNW 19:49:55 20° N 19:51:11 19° N visible
05 Feb 8.9 21:30:45 10° NW 21:31:38 13° NNW 21:31:38 13° NNW visible
06 Feb 6.8 17:25:31 10° WSW 17:30:28 49° NW 17:35:59 10° NE visible
06 Feb 8.0 19:10:50 10° WNW 19:15:01 22° NNW 19:17:45 16° NNE visible
06 Feb 8.5 20:56:02 10° NW 20:58:13 17° NNW 20:58:13 17° NNW visible
